This is the latest recevied weather packets stored in our database for station/object N5PA. If no packets are shown the sender has not sent any weather packets the latest 10 day(s).
| Time | Temp. | Humidity | Pressure | Rain* | Wind** | Luminosity | Snow |
|---|---|---|---|---|---|---|---|
| 1778233805 | 16.11° C | 28% | 1015.3 hPa | 0 mm | - | 1065 W/m² | - |
| 1778233505 | 16.11° C | 28% | 1015.1 hPa | 0 mm | - | 1071 W/m² | - |
| 1778233206 | 16.11° C | 28% | 1014.9 hPa | 0 mm | - | 1065 W/m² | - |
| 1778232906 | 16.11° C | 28% | 1015 hPa | 0 mm | - | 1069 W/m² | - |
| 1778232605 | 16.11° C | 28% | 1014.7 hPa | 0 mm | - | 1067 W/m² | - |
| 1778232306 | 16.11° C | 28% | 1015 hPa | 0 mm | - | 1069 W/m² | - |
| 1778232005 | 16.11° C | 29% | 1015.1 hPa | 0 mm | - | 1069 W/m² | - |
| 1778231106 | 16.11° C | 29% | 1015.3 hPa | 0 mm | - | 1065 W/m² | - |
| 1778230806 | 16.11° C | 29% | 1014.7 hPa | 0 mm | - | 1069 W/m² | - |
| 1778230505 | 16.11° C | 29% | 1014.3 hPa | 0 mm | - | 1067 W/m² | - |
| 1778230205 | 16.11° C | 29% | 1014.1 hPa | 0 mm | - | 1071 W/m² | - |
| 1778229906 | 16.11° C | 29% | 1014.1 hPa | 0 mm | - | 1071 W/m² | - |
| 1778229606 | 16.11° C | 29% | 1014.2 hPa | 0 mm | - | 1071 W/m² | - |
| 1778229305 | 16.11° C | 29% | 1014.4 hPa | 0 mm | - | 1071 W/m² | - |
| 1778229006 | 16.11° C | 29% | 1014.5 hPa | 0 mm | - | 1071 W/m² | - |
| 1778228705 | 16.11° C | 29% | 1014.5 hPa | 0 mm | - | 1071 W/m² | - |
| 1778228406 | 16.11° C | 29% | 1014.5 hPa | 0 mm | - | 1067 W/m² | - |
| 1778228106 | 16.11° C | 29% | 1014.8 hPa | 0 mm | - | 1069 W/m² | - |
| 1778227806 | 16.11° C | 29% | 1015 hPa | 0 mm | - | 1071 W/m² | - |
| 1778227506 | 16.11° C | 29% | 1015.3 hPa | 0 mm | - | 1074 W/m² | - |
| 1778226906 | 16.11° C | 30% | 1015.1 hPa | 0 mm | - | 1072 W/m² | - |
| 1778226606 | 16.11° C | 30% | 1015.3 hPa | 0 mm | - | 1069 W/m² | - |
| 1778226305 | 16.11° C | 30% | 1015.2 hPa | 0 mm | - | 1069 W/m² | - |
| 1778226005 | 16.11° C | 30% | 1015.2 hPa | 0 mm | - | 1072 W/m² | - |
| 1778225705 | 16.11° C | 31% | 1015.1 hPa | 0 mm | - | 1069 W/m² | - |
* Rain latest hour (hover to see other rain measurements)
** Current wind speed in m/s (hover to see current wind gust speed)